TimeGMT,TemperatureF,Dew PointF,Humidity,Sea Level PressureIn,VisibilityMPH,Wind Direction,Wind SpeedMPH,Gust SpeedMPH,PrecipitationIn,Events,Conditions,WindDirDegrees,DateUTC
12:00 AM,47,44,87,29.70,12,West,23.0,,,Rain,Light Rain,260,2012-12-07 00:00:00
3:00 AM,46,36,59,29.65,22,WNW,28.8,,,Rain,Light Rain,300,2012-12-07 03:00:00
3:50 AM,44.6,35.6,71,29.62,6.2,WNW,25.3,-,N/A,,Partly Cloudy,300,2012-12-07 03:50:00
4:20 AM,46.4,37.4,71,29.62,6.2,WNW,24.2,35.7,N/A,,Partly Cloudy,300,2012-12-07 04:20:00
4:50 AM,46.4,37.4,71,29.62,6.2,WNW,24.2,-,N/A,,Partly Cloudy,290,2012-12-07 04:50:00
5:20 AM,46.4,35.6,66,29.59,6.2,West,29.9,41.4,N/A,,Partly Cloudy,280,2012-12-07 05:20:00
5:50 AM,46.4,37.4,71,29.59,6.2,West,28.8,-,N/A,,Partly Cloudy,280,2012-12-07 05:50:00
6:00 AM,46,37,63,29.61,16,West,28.8,,,,Partly Cloudy,280,2012-12-07 06:00:00
6:20 AM,42.8,41.0,93,29.62,6.2,West,31.1,50.6,N/A,,Mostly Cloudy,280,2012-12-07 06:20:00
6:50 AM,44.6,39.2,81,29.62,6.2,WNW,34.5,48.3,N/A,,Partly Cloudy,300,2012-12-07 06:50:00
7:20 AM,44.6,33.8,66,29.62,6.2,NW,33.4,-,N/A,,Partly Cloudy,320,2012-12-07 07:20:00
7:50 AM,44.6,33.8,66,29.65,6.2,NW,31.1,42.6,N/A,,Scattered Clouds,320,2012-12-07 07:50:00
8:20 AM,44.6,35.6,71,29.68,6.2,NW,31.1,42.6,N/A,,Scattered Clouds,310,2012-12-07 08:20:00
8:50 AM,44.6,35.6,71,29.68,6.2,NW,27.6,44.9,N/A,,Mostly Cloudy,310,2012-12-07 08:50:00
9:00 AM,45,36,62,29.71,22,NW,27.6,,,,Partly Cloudy,310,2012-12-07 09:00:00
9:20 AM,44.6,35.6,71,29.71,6.2,NW,26.5,40.3,N/A,,Scattered Clouds,310,2012-12-07 09:20:00
9:50 AM,44.6,37.4,76,29.71,6.2,NW,31.1,-,N/A,,Scattered Clouds,310,2012-12-07 09:50:00
10:20 AM,46.4,39.2,76,29.71,6.2,NW,31.1,44.9,N/A,,Scattered Clouds,310,2012-12-07 10:20:00
10:50 AM,46.4,39.2,76,29.74,6.2,NW,29.9,41.4,N/A,,Mostly Cloudy,320,2012-12-07 10:50:00
11:20 AM,46.4,39.2,76,29.74,6.2,NW,27.6,-,N/A,,Scattered Clouds,310,2012-12-07 11:20:00
11:50 AM,46.4,41.0,81,29.74,6.2,NW,24.2,35.7,N/A,,Scattered Clouds,310,2012-12-07 11:50:00
12:00 PM,47,40,70,29.77,19,NW,24.2,,,,Partly Cloudy,310,2012-12-07 12:00:00
12:20 PM,48.2,41.0,76,29.74,6.2,NW,26.5,39.1,N/A,,Mostly Cloudy,310,2012-12-07 12:20:00
12:50 PM,48.2,41.0,76,29.77,6.2,NW,24.2,-,N/A,,Mostly Cloudy,310,2012-12-07 12:50:00
1:20 PM,48.2,39.2,71,29.77,6.2,NW,25.3,36.8,N/A,,Mostly Cloudy,310,2012-12-07 13:20:00
1:50 PM,48.2,39.2,71,29.77,6.2,NW,26.5,-,N/A,,Mostly Cloudy,320,2012-12-07 13:50:00
2:20 PM,48.2,39.2,71,29.77,6.2,NW,24.2,38.0,N/A,,Scattered Clouds,310,2012-12-07 14:20:00
2:50 PM,46.4,37.4,71,29.80,6.2,NW,27.6,40.3,N/A,,Scattered Clouds,310,2012-12-07 14:50:00
3:00 PM,47,37,59,29.81,25,NW,27.6,,,,Partly Cloudy,310,2012-12-07 15:00:00
3:20 PM,46.4,35.6,66,29.80,6.2,NW,25.3,38.0,N/A,,Scattered Clouds,310,2012-12-07 15:20:00
3:50 PM,46.4,37.4,71,29.80,6.2,WNW,26.5,-,N/A,,Scattered Clouds,300,2012-12-07 15:50:00
4:20 PM,46.4,39.2,76,29.83,6.2,NW,29.9,41.4,N/A,,Scattered Clouds,310,2012-12-07 16:20:00
4:50 PM,46.4,39.2,76,29.83,6.2,NW,27.6,41.4,N/A,,Scattered Clouds,310,2012-12-07 16:50:00
5:20 PM,46.4,39.2,76,29.86,6.2,NW,26.5,-,N/A,,Mostly Cloudy,310,2012-12-07 17:20:00
5:50 PM,46.4,41.0,81,29.86,6.2,NW,28.8,-,N/A,,Mostly Cloudy,310,2012-12-07 17:50:00
6:00 PM,47,40,69,29.87,19,NW,28.8,,,,Mostly Cloudy,310,2012-12-07 18:00:00
6:20 PM,48.2,41.0,76,29.86,6.2,NW,27.6,-,N/A,,Mostly Cloudy,320,2012-12-07 18:20:00
6:50 PM,48.2,41.0,76,29.89,6.2,NW,27.6,40.3,N/A,,Mostly Cloudy,320,2012-12-07 18:50:00
7:20 PM,48.2,39.2,71,29.92,6.2,NW,28.8,40.3,N/A,,Mostly Cloudy,320,2012-12-07 19:20:00
7:50 PM,48.2,39.2,71,29.92,6.2,NNW,24.2,-,N/A,,Scattered Clouds,330,2012-12-07 19:50:00
8:20 PM,48.2,39.2,71,29.95,6.2,NNW,24.2,-,N/A,,Scattered Clouds,330,2012-12-07 20:20:00
8:50 PM,46.4,37.4,71,29.95,6.2,NNW,26.5,39.1,N/A,,Scattered Clouds,340,2012-12-07 20:50:00
9:00 PM,47,37,59,29.98,19,NNW,26.5,,,,Partly Cloudy,340,2012-12-07 21:00:00
9:20 PM,48.2,39.2,71,29.98,6.2,NNW,24.2,35.7,N/A,,Mostly Cloudy,340,2012-12-07 21:20:00